Location: Unspecified
(0.0000°N, 0.0000°E)
Time: 06:30:13
(UTC+00:00)

deb Explorer IX - Pass Details

Date: 27 November 2019
Orbit: 546 x 1104 km, 38.8° (Epoch: 11 December)

Event Time Altitude Azimuth Distance (km) Brightness Sun altitude
Rises 17:21:30 0° 222° (SW) 3,407 ? 6.1°
Reaches altitude 10° 17:23:55 10° 219° (SW) 2,552 ? 5.5°
Maximum altitude 17:30:04 65° 138° (SE) 1,077 ? 4.1°
Drops below altitude 10° 17:37:03 10° 57° (ENE) 2,880 ? 2.5°
Sets 17:39:55 0° 55° (NE) 3,873 ? 1.8°
